Time,TemperatureF,DewpointF,PressureIn,WindDirection,WindDirectionDegrees,WindSpeedMPH,WindSpeedGustMPH,Humidity,HourlyPrecipIn,Conditions,Clouds,dailyrainin,SoftwareType,DateUTC
2013-08-24 00:43:00,65.0,54.0,29.87,West,265,8.0,14.0,67,-99.99,,,-99.99,,2013-08-24 07:43:00,
2013-08-24 01:42:00,65.0,54.0,29.88,West,273,10.0,16.0,68,-99.99,,,-99.99,,2013-08-24 08:42:00,
2013-08-24 02:11:00,65.0,55.0,29.87,WNW,290,13.0,19.0,70,-99.99,,,-99.99,,2013-08-24 09:11:00,
2013-08-24 02:22:00,65.0,55.0,29.87,WNW,292,11.0,18.0,70,-99.99,,,-99.99,,2013-08-24 09:22:00,
2013-08-24 03:13:00,65.0,55.0,29.88,WNW,285,12.0,19.0,70,-99.99,,,-99.99,,2013-08-24 10:13:00,
2013-08-24 03:23:00,65.0,55.0,29.88,West,278,11.0,19.0,71,-99.99,,,-99.99,,2013-08-24 10:23:00,
2013-08-24 03:42:00,64.0,55.0,29.88,West,276,9.0,15.0,73,-99.99,,,-99.99,,2013-08-24 10:42:00,
2013-08-24 04:12:00,63.0,56.0,29.88,West,279,10.0,16.0,75,-99.99,,,-99.99,,2013-08-24 11:12:00,
2013-08-24 04:22:00,63.0,56.0,29.88,West,277,9.0,18.0,76,-99.99,,,-99.99,,2013-08-24 11:22:00,
2013-08-24 04:42:00,63.0,56.0,29.88,WNW,285,10.0,19.0,76,-99.99,,,-99.99,,2013-08-24 11:42:00,
2013-08-24 05:21:00,63.0,56.0,29.87,WNW,283,11.0,19.0,77,-99.99,,,-99.99,,2013-08-24 12:21:00,
2013-08-24 05:42:00,63.0,56.0,29.87,West,280,8.0,15.0,78,-99.99,,,-99.99,,2013-08-24 12:42:00,
2013-08-24 05:52:00,62.0,56.0,29.87,WNW,282,10.0,17.0,78,-99.99,,,-99.99,,2013-08-24 12:52:00,
2013-08-24 06:11:00,62.0,56.0,29.87,WNW,286,10.0,18.0,78,-99.99,,,-99.99,,2013-08-24 13:11:00,
2013-08-24 06:22:00,62.0,56.0,29.87,WNW,283,9.0,16.0,78,-99.99,,,-99.99,,2013-08-24 13:22:00,
2013-08-24 06:42:00,62.0,56.0,29.87,WNW,289,12.0,19.0,78,-99.99,,,-99.99,,2013-08-24 13:42:00,
2013-08-24 07:22:00,62.0,56.0,29.88,WNW,293,12.0,18.0,79,-99.99,,,-99.99,,2013-08-24 14:22:00,
2013-08-24 07:42:00,62.0,56.0,29.88,WNW,296,8.0,13.0,78,-99.99,,,-99.99,,2013-08-24 14:42:00,
2013-08-24 08:45:00,64.0,56.0,29.89,West,265,8.0,16.0,75,-99.99,,,-99.99,,2013-08-24 15:45:00,
2013-08-24 09:13:00,65.0,56.0,29.88,West,277,9.0,17.0,73,-99.99,,,-99.99,,2013-08-24 16:13:00,
2013-08-24 09:23:00,65.0,56.0,29.88,West,280,10.0,17.0,72,-99.99,,,-99.99,,2013-08-24 16:23:00,
2013-08-24 09:42:00,66.0,56.0,29.88,WNW,282,9.0,17.0,71,-99.99,,,-99.99,,2013-08-24 16:42:00,
2013-08-24 10:23:00,68.0,56.0,29.87,WNW,289,12.0,19.0,66,-99.99,,,-99.99,,2013-08-24 17:23:00,
2013-08-24 10:42:00,68.0,56.0,29.88,WNW,291,11.0,18.0,65,-99.99,,,-99.99,,2013-08-24 17:42:00,
2013-08-24 11:22:00,70.0,55.0,29.87,WNW,299,7.0,15.0,58,-99.99,,,-99.99,,2013-08-24 18:22:00,
2013-08-24 11:42:00,72.0,54.0,29.87,WNW,288,10.0,19.0,53,-99.99,,,-99.99,,2013-08-24 18:42:00,
2013-08-24 12:12:00,73.0,54.0,29.87,WNW,292,10.0,18.0,51,-99.99,,,-99.99,,2013-08-24 19:12:00,
2013-08-24 12:21:00,73.0,53.0,29.86,WNW,288,12.0,20.0,49,-99.99,,,-99.99,,2013-08-24 19:21:00,
2013-08-24 12:42:00,74.0,53.0,29.86,WNW,294,12.0,22.0,48,-99.99,,,-99.99,,2013-08-24 19:42:00,
2013-08-24 13:11:00,75.0,51.0,29.85,WNW,290,11.0,20.0,42,-99.99,,,-99.99,,2013-08-24 20:11:00,
2013-08-24 13:22:00,75.0,52.0,29.85,WNW,283,11.0,17.0,44,-99.99,,,-99.99,,2013-08-24 20:22:00,
2013-08-24 13:42:00,76.0,51.0,29.85,WNW,294,12.0,22.0,42,-99.99,,,-99.99,,2013-08-24 20:42:00,
2013-08-24 14:22:00,75.0,50.0,29.85,WNW,286,11.0,18.0,42,-99.99,,,-99.99,,2013-08-24 21:22:00,
2013-08-24 14:43:00,75.0,51.0,29.84,WNW,288,14.0,23.0,42,-99.99,,,-99.99,,2013-08-24 21:43:00,
2013-08-24 15:23:00,75.0,52.0,29.83,West,280,13.0,27.0,43,-99.99,,,-99.99,,2013-08-24 22:23:00,
2013-08-24 15:43:00,76.0,50.0,29.83,WNW,287,16.0,26.0,40,-99.99,,,-99.99,,2013-08-24 22:43:00,
2013-08-24 16:42:00,75.0,51.0,29.83,West,274,14.0,22.0,42,-99.99,,,-99.99,,2013-08-24 23:42:00,
2013-08-24 17:11:00,75.0,51.0,29.83,West,277,11.0,20.0,42,-99.99,,,-99.99,,2013-08-25 00:11:00,
2013-08-24 17:22:00,74.0,51.0,29.83,West,266,9.0,15.0,45,-99.99,,,-99.99,,2013-08-25 00:22:00,
2013-08-24 17:42:00,74.0,52.0,29.83,West,273,8.0,14.0,47,-99.99,,,-99.99,,2013-08-25 00:42:00,
2013-08-24 18:22:00,74.0,50.0,29.83,West,269,6.0,10.0,43,-99.99,,,-99.99,,2013-08-25 01:22:00,
2013-08-24 18:42:00,74.0,50.0,29.83,West,274,6.0,13.0,42,-99.99,,,-99.99,,2013-08-25 01:42:00,
2013-08-24 19:22:00,72.0,51.0,29.83,West,272,7.0,11.0,47,-99.99,,,-99.99,,2013-08-25 02:22:00,
2013-08-24 19:42:00,72.0,51.0,29.84,West,275,7.0,11.0,46,-99.99,,,-99.99,,2013-08-25 02:42:00,
2013-08-24 20:23:00,70.0,51.0,29.85,West,279,7.0,10.0,50,-99.99,,,-99.99,,2013-08-25 03:23:00,
2013-08-24 20:44:00,70.0,51.0,29.85,West,278,6.0,10.0,52,-99.99,,,-99.99,,2013-08-25 03:44:00,
2013-08-24 21:02:00,-999.0,-99.9,29.86,WSW,245,3.0,4.0,-999,-99.99,,,-99.99,,2013-08-25 04:02:00,
2013-08-24 21:14:00,68.0,51.0,29.86,WSW,245,3.0,4.0,55,-99.99,,,-99.99,,2013-08-25 04:14:00,
2013-08-24 21:25:00,67.0,52.0,29.87,WSW,238,4.0,5.0,59,-99.99,,,-99.99,,2013-08-25 04:25:00,
2013-08-24 21:43:00,65.0,52.0,29.87,SW,227,2.0,3.0,62,-99.99,,,-99.99,,2013-08-25 04:43:00,
2013-08-24 22:42:00,66.0,51.0,29.88,WSW,255,6.0,11.0,58,-99.99,,,-99.99,,2013-08-25 05:42:00,
2013-08-24 23:22:00,66.0,53.0,29.89,West,277,4.0,6.0,63,-99.99,,,-99.99,,2013-08-25 06:22:00,
2013-08-24 23:43:00,66.0,52.0,29.89,WSW,252,3.0,4.0,62,-99.99,,,-99.99,,2013-08-25 06:43:00,